Regional Weather Roundup
Issued by NWS Wakefield, VA

Home | Current Version | Previous Version | Graphics & Text | Print | Product List | Glossary On
Versions: 1 2 3 4 5 6 7 8 9 10 11 12 13 14 15 16 17 18 19 20 21 22 23 24 25 26 27 28 29 30 31 32 33 34 35 36 37 38 39 40 41 42 43 44 45 46 47 48 49 50
000
ASUS41 KAKQ 270910
RWRAKQ

REGIONAL WEATHER ROUNDUP
NATIONAL WEATHER SERVICE WAKEFIELD VA
400 AM EST TUE JAN 27 2015

Note: "fair" indicates few or no clouds below 12,000 feet with no
significant weather and/or obstructions to visibility. * = Denotes
station may not report precipitation (e.g., rain,snow,etc.),
thunder or fog.

VAZ042-051-052>054-056-271000-
NORTHERN VIRGINIA

CITY           SKY/WX    TMP DP  RH WIND       PRES   REMARKS
WASH NATIONAL  FLURRIES  31  23  72 N13       29.76R WCI  21
DULLES         MOCLDY    27  22  81 N13       29.75S WCI  16
FORT BELVOIR   CLOUDY    29  23  79 NW9       29.76R
QUANTICO       LGT RAIN  30  23  75 N10       29.76S WCI  21
FREDERICKSBRG* FLURRIES  31  27  86 N12G17    29.74S WCI  21
STAFFORD*      LGT SNOW  28  28 100 CALM      29.79R
WARRENTON      CLOUDY    31  28  89 N7        29.74S
CULPEPER*      CLOUDY    30  25  80 N6        29.75R
MANASSAS*      CLOUDY    28  27  93 N12G21    29.76S WCI  18
LEESBURG*      CLOUDY    28  27  93 N8        29.76S
WINCHESTER     CLOUDY    30  23  74 NW8       29.76S
FRONT ROYAL*   CLOUDY    27  23  86 CALM      29.75S
LURAY*         LGT SNOW  28  28 100 CALM      29.75R
$$

VAZ048-049-060>072-079>083-271000-
CENTRAL AND SOUTH CENTRAL VIRGINIA

CITY           SKY/WX    TMP DP  RH WIND       PRES   REMARKS
RICHMOND       CLOUDY    32  25  75 N16       29.71S WCI  21
CHESTERFIELD*  FAIR      30  16  55 N8G17     29.72S
PETERSBURG*    CLOUDY    33  26  73 N6        29.72S
HANOVER        CLOUDY    30  23  75 VRB7G17   29.74R
TAPPAHANNOCK*  LGT SNOW  30  25  82 NW9G16    29.72S
QUINTON*       CLOUDY    30  26  86 N5        29.71S
CHARLOTTSVILLE CLOUDY    31  25  78 N3        29.71S
GORDONSVILLE*  CLOUDY    28  24  84 CALM      29.72S
ORANGE*        MOCLDY    32  27  80 N5        29.74S
LOUISA*        CLOUDY    30  25  80 N6        29.71S
BUMPASS*       CLOUDY    30  24  78 N7        29.72S
FARMVILLE*     CLOUDY    32  32 100 CALM      29.72S
CREWE*         CLOUDY    31  26  84 CALM      29.71S
FORT PICKETT*  CLOUDY    31  28  88 N5        29.71S
CHASE CITY*    CLOUDY    34  34  99 CALM      29.72R
CLARKSVILLE*   CLOUDY    34  32  93 CALM      29.72S
SOUTH HILL*    CLOUDY    32  28  86 N6        29.76S
LAWRENCEVILLE* CLOUDY    32  28  86 NW6       29.70F
EMPORIA*       MOCLDY    32  27  80 NW8       29.73S
$$

VAZ088>098-271000-
SOUTHEAST VIRGINIA

CITY           SKY/WX    TMP DP  RH WIND       PRES   REMARKS
NORFOLK        LGT SNOW  31  28  89 NW9G18    29.67S VSB 1
VIRGINIA BEACH LGT SNOW  33  30  88 N15       29.65S FOG     WCI  23
NORFOLK NAVAL  LGT SNOW  33  28  81 NW13      29.69S WCI  24
WEST POINT*    CLOUDY    32  28  84 NW6       29.72F
SALUDA*        CLOUDY    28  26  91 NW13      29.69S WCI  18
NEWPORT NEWS   LGT SNOW  33  27  78 N12       29.69S WCI  24
LANGLEY AFB    FLURRIES  30  27  86 N13       29.68S WCI  20
FORT EUSTIS    MIX PCPN  31  30  98 N12G17    29.68R WCI  21
WILLIAMSBURG*    N/A     34  28  80 N12       29.71R
HR EXEC AP*    CLOUDY    30  27  86 N9        29.70S
FRANKLIN*      CLOUDY    31  27  84 NW8       29.70F
WAKEFIELD      CLOUDY    31  26  82 N6        29.70S
$$

VAZ020-022-025-037-045-271000-
WEST CENTRAL AND SOUTHWEST VIRGINIA

CITY           SKY/WX    TMP DP  RH WIND       PRES   REMARKS
STAUNTON*      LGT SNOW  29  25  85 N6        29.74S
WAYNESBORO*    CLOUDY    27  25  95 CALM      29.71S
HOT SPRINGS VA CLOUDY    16  15  99 NW13      29.58S WCI   2
LYNCHBURG      MOCLDY    31  21  66 VRB5      29.72S
DANVILLE       CLOUDY    34  22  61 NW10      29.75R
SOUTH BOSTON*  CLOUDY    32  29  89 NW3       29.73F
MARTINSVILLE   CLEAR     28  17  64 NW6       29.77R
ROANOKE        CLEAR     28  14  55 NW12      29.77S WCI  18
BLACKSBURG     PTCLDY    21  11  65 W13G22    29.75F WCI   9
DUBLIN*        MOCLDY    24  17  74 NW9       29.76S
MARION*        FLURRIES  24  17  73 W15G28    29.77S WCI  12
HILLSVILLE*    MOCLDY    21  15  76 N13G18    29.70S WCI   9
RICHLANDS*     FLURRIES  22  15  76 NW9       29.77S
WISE*          CLOUDY    25  25 100 NW7       29.77F
ABINGDON*      CLOUDY    28  19  70 NW6       29.80F
$$

MDZ021>025-VAZ099-100-271000-
SOUTHERN MARYLAND AND THE DELMARVA PENINSULA

CITY           SKY/WX    TMP DP  RH WIND       PRES   REMARKS
PATUXENT RIVER CLOUDY    28  22  78 N18       29.70S WCI  15
BAY BRIDGE APT   N/A     30  23  74 N15G23    29.72S WCI  19
LEONARDTOWN    CLOUDY    28  23  80 NW8       29.72F
DOVER          CLOUDY    27  23  86 N17       29.68R WCI  14
GEORGETOWN     CLOUDY    29  23  78 N9G17     29.66S
EASTON         CLOUDY    30  26  85 N10G18    29.74S WCI  21
CAMBRIDGE      MOCLDY    32  27  80 CALM      29.69S
SALISBURY      CLOUDY    31  26  82 NW17      29.66R WCI  19
OCEAN CITY     CLOUDY    30  25  81 N13G24    29.64R WCI  20
WALLOPS ISLAND CLOUDY    29  26  89 N10       29.65R WCI  20
ACCOMACK*      CLOUDY    32  27  80 N10G23    29.65F WCI  24
$$

NCZ012>017-030>032-271000-
NORTH CENTRAL AND EASTERN NORTH CAROLINA

CITY           SKY/WX    TMP DP  RH WIND       PRES   REMARKS
ROANOKE RAPIDS CLOUDY    34  28  80 N15G21    29.71R WCI  24
RALEIGH        FLURRIES  34  29  82 VRB3      29.73R
ELIZABETH CITY CLOUDY    34  30  86 N17G26    29.66S WCI  23
AHOSKIE*       CLOUDY    33  28  81 N7        29.70S
EDENTON*       CLOUDY    34  32  92 N12       29.67S
CURRITUCK*     LGT SNOW  33  31  93 NW10G18   29.67R WCI  25
KILL DEVIL HLS LGT RAIN  35  34  96 NW8G24    29.62S
MANTEO         CLOUDY    36  32  87 NW13G22   29.64S
CAPE HATTERAS  CLOUDY    39  35  86 N12G23    29.61S
TARBORO*       PTSUNNY   36  30  80 N9G17     29.71S
GOLDSBORO      MIX PCPN  39  39 100 NW12      29.69R
WASHINGTON     CLOUDY    37  33  85 N10       29.67S
GREENVILLE     NOT AVBL
NEW BERN       CLOUDY    43  34  70 N14G21    29.66S
WILMINGTON     CLOUDY    44  38  79 NW12      29.68S
$$

VAZ048-271000-
ELSEWHERE

CITY           SKY/WX    TMP DP  RH WIND       PRES   REMARKS
HARRISBURG PA  FLURRIES  26  21  81 NW12      29.75F WCI  16
BALTIMORE      LGT SNOW  28  22  78 N8        29.72F
ANNAPOLIS      CLOUDY    29  23  78 N14       29.72S WCI  18
ANDREWS AFB    LGT SNOW  27  24  89 N14       29.72S FOG     WCI  16
PHILADELPHIA   LGT SNOW  26  21  81 N14       29.71F VSB 1   WCI  14
HENDERSON NC   LGT SNOW  32  31  96 CALM      29.72S
GREENSBORO     PTCLDY    28  19  69 NW7       29.73S
ROCKY MOUNT    CLOUDY    37  30  75 N9        29.71R
$$

VAZ100-271000-
MARINE

STATION/POSITION TIME  TEMP    WIND        PRES    WAVE   SWELL
                       AIR SEA DIR/SP/G            HT/PER HT/PER
                 (UTC) (F)     (DEG/KT/KT) (MB)    (FT/S) (FT/S)
BRANDYWINE LGT   0900   29 38   10/ 24/ 28 1004.1R
CAPE MAY NJ      0900   29 39  360/  4/ 12 1003.4F
LEWES DE         0900   30 38  360/ 24/ 29 1004.0S
15NM E FENWICK I 0900   32 41              1001.8R  13/11
OCEAN-CITY-INLET 0900   31 39  360/ 18/ 21 1003.1R
WACHAPREAGUE VA  0900   30 42  330/ 12/ 18 1003.8S
THOMAS POINT MD  0900   29 37  350/ 15/ 18 1007.3R
GOOSES REEF MD   0900   29     VRB 19/ 23  1005.1F
COVE POINT MD    0900   28     360/ 21/ 26 1005.7R
SOLOMONS ISLAND  0900      38                N/A
BISHOPS HEAD MD  0900   29 36  340/ 14/ 18 1004.7S
PINEY POINT MD   0900          360/ 18/ 20   N/A
POTOMAC MD       0900   29     350/ 14/ 17 1004.7S
CAMBRIDGE MD     0900   30 36  340/ 15/ 20 1005.4S
LEWISETTA VA     0900   29 38  350/ 13/ 19 1005.8S
RAPPAHANNOCK LGT 0900          330/ 27/ 30 1004.9R
STINGRAY PT      0900   30     340/ 16/ 21 1005.7S
YORK RVR RNG VA  0900   30     340/ 20/ 22 1004.4S
YORKTOWN VA      0900   30 41  330/ 11/ 14 1005.1S
JAMESTOWN VA     0900   30     360/ 10/ 14   N/A
DOMINION TERM VA 0900   32     350/  5/ 11 1005.1S
KIPTOPEKE VA     0900      45  340/ 22/ 28   N/A
CHES BAY BRIDGE  0900   32 41  320/ 21/ 24 1004.2S
CAPE HENRY VA    0900   32     330/ 21/ 26 1003.0S
CHESAPEAKE LGHT  0800   33     340/ 28/ 30 1003.7R
WILLOUBY STN VA  0900   30     330/ 13/ 16 1005.4S
S CRANEY ISL VA  0900          330/ 11/ 15 1005.0S
CAPE HENRY BUOY  0900      45                N/A     8/11   3/11
1ST LANDING BUOY 0900   33     330/ 21/ 25 1004.2R
CAPE CHARLES BUO 0900      43                N/A     8/11   7/11
OFFSHORE WE BUOY 0900      47                N/A    10/ 9   8/ 9
64NM E OF VA BCH 0900   40 52  350/ 29/ 35 1000.2R  15/11   8/11
DUCK PIER NC     0900   35 44  330/ 21/ 26 1002.6R
44100 DUCK FRF   0900      45                N/A    11/11   5/11
44056 DUCK FRF   0900      44                N/A     8/11   3/11
OREGON INLET NC  0900   36 46  320/ 17/ 21 1003.0F
HATTERAS NC      0900   41 50  340/ 22/ 26 1002.8S


USA.gov is the U.S. government's official web portal to all federal, state and local government web resources and services.